Weather History for Kalaeloa, HI

Change the Weather History Date:

Sunday, August 31, 2014

  Actual Average (PHNL) Record (PHNL)
Temperature  
Mean Temperature 78 °F 82 °F  
Max Temperature 86 °F 89 °F 93 °F (1984)
Min Temperature 69 °F 75 °F 69 °F (1987)
Degree Days  
Heating Degree Days 0 0  
Month to date heating degree days 0  
Since 1 June heating degree days 0  
Since 1 July heating degree days 0  
Cooling Degree Days 12 17  
Month to date cooling degree days 524  
Year to date cooling degree days 2984  
Since 1 June cooling degree days 1482  
Growing Degree Days 28 (Base 50)    
Moisture  
Dew Point 68 °F    
Average Humidity 72    
Maximum Humidity 88    
Minimum Humidity 55    
Precipitation  
Precipitation 0.00 in 0.02 in 1.71 in (1996)
Month to date precipitation 0.56  
Year to date precipitation 8.90  
Snow  
Snow 0.00 in - - ()
Month to date snowfall  
Since 1 June snowfall  
Since 1 July snowfall  
Snow Depth -    
Sea Level Pressure  
Sea Level Pressure 30.01 in    
Wind  
Wind Speed 3 mph (SSE)    
Max Wind Speed 14 mph    
Max Gust Speed -    
Visibility 10 miles    
Events      
T = Trace of Precipitation, MM = Missing Value Source: NWS Daily Summary

Daily Weather History Graph

Daily Weather History Graph

Search for Another Location

Airport:

Trip Planner

Search our weather history database for the weather conditions in past years. The results will help you decide how hot, cold, wet, or windy it might be!

Date:

Astronomy

Aug. 31, 2014 Rise Set
Actual Time 6:15 AM HST 6:49 PM HST
Civil Twilight 5:53 AM HST 7:11 PM HST
Nautical Twilight 5:26 AM HST 7:38 PM HST
Astronomical Twilight 4:59 AM HST 8:04 PM HST
Moon 11:27 AM HST (8/31) 10:59 PM HST (8/31)
Length of Visible Light 13h 18m
Length of Day
12h 33m
Waxing Crescent, 34% of the Moon is Illuminated
Aug 31
Waxing Crescent
Sep 2
First Quarter
Sep 8
Full
Sep 15
Last Quarter
Sep 23
New

Hourly Weather History & Observations

Time (HST) Temp. Heat Index Dew Point Humidity Pressure Visibility Wind Dir Wind Speed Gust Speed Precip Events Conditions
12:53 AM 73.0 °F - 66.9 °F 81% 29.99 in 10.0 mi Calm Calm - N/A   Clear
1:53 AM 73.0 °F - 68.0 °F 84% 29.98 in 10.0 mi Calm Calm - N/A   Mostly Cloudy
2:53 AM 73.0 °F - 66.9 °F 81% 29.98 in 10.0 mi Calm Calm - N/A   Clear
3:53 AM 71.1 °F - 66.9 °F 87% 29.97 in 10.0 mi Calm Calm - N/A   Clear
4:53 AM 71.1 °F - 66.0 °F 84% 29.98 in 10.0 mi Calm Calm - N/A   Clear
5:48 AM 69.8 °F - 66.2 °F 88% 29.97 in 10.0 mi Calm Calm - N/A   Scattered Clouds
5:53 AM 70.0 °F - 66.0 °F 87% 29.99 in 10.0 mi ENE 3.5 mph - N/A   Partly Cloudy
5:57 AM 71.6 °F - 66.2 °F 83% 29.98 in 10.0 mi Calm Calm - N/A   Partly Cloudy
6:53 AM 72.0 °F - 66.9 °F 84% 30.01 in 10.0 mi Calm Calm - N/A   Clear
7:53 AM 80.1 °F 82.7 °F 68.0 °F 67% 30.02 in 10.0 mi Calm Calm - N/A   Clear
8:53 AM 82.9 °F 85.4 °F 66.9 °F 58% 30.03 in 10.0 mi Variable 4.6 mph - N/A   Clear
9:53 AM 82.9 °F 86.5 °F 69.1 °F 63% 30.04 in 10.0 mi SE 9.2 mph - N/A   Clear
10:53 AM 84.0 °F 89.0 °F 71.1 °F 65% 30.03 in 10.0 mi SE 10.4 mph - N/A   Clear
11:53 AM 86.0 °F 90.7 °F 70.0 °F 59% 30.02 in 10.0 mi SE 12.7 mph - N/A   Clear
12:53 PM 86.0 °F 90.1 °F 69.1 °F 57% 30.01 in 10.0 mi SSE 13.8 mph - N/A   Clear
1:53 PM 86.0 °F 89.4 °F 68.0 °F 55% 30.00 in 10.0 mi SSE 11.5 mph - N/A   Clear
2:53 PM 84.9 °F 89.4 °F 70.0 °F 61% 29.99 in 10.0 mi SSE 9.2 mph - N/A   Clear
3:53 PM 82.9 °F 87.0 °F 70.0 °F 65% 29.99 in 10.0 mi South 6.9 mph - N/A   Overcast
4:53 PM 82.9 °F 85.8 °F 68.0 °F 60% 29.99 in 10.0 mi South 6.9 mph - N/A   Overcast
5:53 PM 82.0 °F 84.9 °F 68.0 °F 62% 30.01 in 10.0 mi South 3.5 mph - N/A   Mostly Cloudy
6:53 PM 81.0 °F 83.8 °F 68.0 °F 65% 30.03 in 10.0 mi WSW 4.6 mph - N/A   Partly Cloudy
7:53 PM 80.1 °F 82.9 °F 69.1 °F 69% 30.04 in 10.0 mi West 3.5 mph - N/A   Mostly Cloudy
8:53 PM 78.1 °F - 69.1 °F 74% 30.06 in 10.0 mi Calm Calm - N/A   Clear
9:53 PM 75.9 °F - 68.0 °F 76% 30.06 in 10.0 mi Calm Calm - N/A   Clear
10:53 PM 75.0 °F - 68.0 °F 79% 30.06 in 10.0 mi Calm Calm - N/A   Clear
11:53 PM 73.0 °F - 68.0 °F 84% 30.06 in 10.0 mi Calm Calm - N/A   Clear